Regional Weather Roundup
Issued by NWS Wakefield, VA

Home | Current Version | Previous Version | Graphics & Text | Print | Product List | Glossary On
Versions: 1 2 3 4 5 6 7 8 9 10 11 12 13 14 15 16 17 18 19 20 21 22 23 24 25 26 27 28 29 30 31 32 33 34 35 36 37 38 39 40 41 42 43 44 45 46 47 48 49 50
497
ASUS41 KAKQ 231115
RWRAKQ

REGIONAL WEATHER ROUNDUP
NATIONAL WEATHER SERVICE WAKEFIELD VA
700 AM EDT MON APR 23 2018

Note: "fair" indicates few or no clouds below 12,000 feet with no
significant weather and/or obstructions to visibility. * = Denotes
station may not report precipitation (e.g., rain,snow,etc.),
thunder or fog.

VAZ042-051-052>054-056-231200-
NORTHERN VIRGINIA

CITY           SKY/WX    TMP DP  RH WIND       PRES   REMARKS
WASH NATIONAL  MOCLDY    51  40  65 SE3       30.43R
DULLES         MOCLDY    45  39  79 CALM      30.41R
FORT BELVOIR   FAIR      45  38  77 CALM      30.42R
QUANTICO       MOCLDY    50  42  74 CALM      30.43R
FREDERICKSBRG* FAIR      44  40  88 CALM      30.41R
STAFFORD*      FAIR      41  41 100 CALM      30.46R
WARRENTON      FAIR      39  35  86 CALM      30.40R
CULPEPER*      FAIR      39  37  90 CALM      30.42R
MANASSAS*      FAIR      43  39  86 CALM      30.41R
LEESBURG*      FAIR      45  39  81 CALM      30.42R
WINCHESTER     FAIR      41  36  81 CALM      30.40R
FRONT ROYAL*   FAIR      41  37  87 NW3       30.36R
LURAY*         FAIR      37  37 100 CALM      30.37R
$$

VAZ048-049-060>072-079>083-231200-
CENTRAL AND SOUTH CENTRAL VIRGINIA

CITY           SKY/WX    TMP DP  RH WIND       PRES   REMARKS
RICHMOND       MOCLDY    45  43  93 NE5       30.39R
CHESTERFIELD*  FAIR      43  38  82 CALM      30.39R
PETERSBURG*    FAIR      37  36  93 CALM      30.39R
HANOVER        FAIR      42  40  92 CALM      30.41R
TAPPAHANNOCK*  FAIR      42  41  96 CALM      30.42R
QUINTON*       FAIR      44  43  98 CALM      30.39R
CHARLOTTSVILLE FAIR      45  38  76 N3        30.39R
GORDONSVILLE*  FAIR      39  39  99 CALM      30.40R
ORANGE*        FAIR      37  36  93 CALM      30.40R
LOUISA*        FAIR      38  38  97 E5        30.44R
BUMPASS*       FAIR      41  39  93 CALM      30.40R
FARMVILLE*     FAIR      46  40  82 N6        30.36S
CREWE*         FAIR      40  40 100 CALM      30.37R
FORT PICKETT*  FAIR      42  42 100 SE5       30.37R
CHASE CITY*    FAIR      47  46  99 E3        30.35R
CLARKSVILLE*   FAIR      50  46  87 E6        30.35R
SOUTH HILL*    FAIR      42  42  99 CALM      30.41R
LAWRENCEVILLE* FAIR      45  42  89 CALM      30.36R
EMPORIA*       FAIR      43  41  93 CALM      30.39R
$$

VAZ088>098-231200-
SOUTHEAST VIRGINIA

CITY           SKY/WX    TMP DP  RH WIND       PRES   REMARKS
NORFOLK        FAIR      54  45  71 SE5       30.38R
VIRGINIA BEACH MOCLDY    53  46  77 SE7       30.39R
NORFOLK NAVAL  MOCLDY    54  44  69 SE7       30.40R
WEST POINT*    FAIR      44  42  92 NE5       30.42R
SALUDA*        FAIR      51  46  83 E7        30.41R
NEWPORT NEWS   FAIR      46  43  89 E5        30.39R
LANGLEY AFB    FAIR      53  46  78 E7        30.39R
FORT EUSTIS    MOCLDY    49  44  80 CALM      30.37R
WILLIAMSBURG*  FAIR      46  43  87 CALM      30.40R
HR EXEC AP*    FAIR      48  44  86 E5        30.40R
FRANKLIN*      FAIR      49  44  84 SE3       30.38R
US460-WAKEFLD  FAIR      42  40  92 CALM      30.39R
$$

VAZ020-022-025-037-045-231200-
WEST CENTRAL AND SOUTHWEST VIRGINIA

CITY           SKY/WX    TMP DP  RH WIND       PRES   REMARKS
STAUNTON*      FAIR      38  36  89 CALM      30.38R
WAYNESBORO*    FAIR      44  36  72 E5        30.36R
HOT SPRINGS VA FAIR      42  32  69 E9        30.31R
LYNCHBURG      FAIR      46  39  76 NE6       30.35R
DANVILLE       CLOUDY    49  41  74 E5        30.33R
SOUTH BOSTON*  FAIR      46  41  84 CALM      30.35R
MARTINSVILLE   FAIR      49  41  72 CALM      30.33S
ROANOKE        CLOUDY    51  36  56 SE6       30.35R
BLACKSBURG     MOCLDY    51  38  62 E9        30.34R
DUBLIN*        CLOUDY    51  43  74 E5        30.31R
MARION*        CLOUDY    53  47  81 E14G21    30.27R
HILLSVILLE*    CLOUDY    49  42  76 SE8       30.26S
RICHLANDS*     CLOUDY    53  12  19 SE18G39   30.18R
WISE*          DRIZZLE   52  50  93 SE9G17    30.15R
ABINGDON*      CLOUDY    57  48  72 S8        30.19R
$$

MDZ021>025-VAZ099-100-231200-
SOUTHERN MARYLAND AND THE DELMARVA PENINSULA

CITY           SKY/WX    TMP DP  RH WIND       PRES   REMARKS
PATUXENT RIVER MOCLDY    54  47  77 SE6       30.42R
BAY BRIDGE APT CLOUDY    50  43  76 CALM      30.43R
LEONARDTOWN    CLOUDY    48  43  81 CALM      30.43S
DOVER          FAIR      42  35  78 CALM      30.44R
GEORGETOWN     FAIR      40  37  89 CALM      30.44R
EASTON         MOCLDY    46  41  81 CALM      30.46R
CAMBRIDGE      MOCLDY    45  41  87 CALM      30.44R
SALISBURY      FAIR      43  41  93 SW3       30.43R
TANGIER        FAIR      54  43  66 SE10      30.41S
OCEAN CITY     FAIR      42  41  96 CALM      30.44R
WALLOPS ISLAND MOCLDY    50  44  80 CALM      30.44R
ACCOMACK*      FAIR      46  42  86 SE6       30.42R
$$

NCZ012>017-030>032-231200-
NORTH CENTRAL AND EASTERN NORTH CAROLINA

CITY           SKY/WX    TMP DP  RH WIND       PRES   REMARKS
ROANOKE RAPIDS FAIR      45  45 100 CALM      30.36R
RALEIGH        CLOUDY    52  46  80 E8        30.32R
ELIZABETH CITY FAIR      55  51  86 E9        30.38R
AHOSKIE*       FAIR      47  46  94 CALM      30.37R
EDENTON*       FAIR      55  53  93 E6        30.37R
CURRITUCK*     NOT AVBL
KILL DEVIL HLS FAIR      54  49  83 E8        30.37R
MANTEO         FAIR      56  49  79 E10       30.39R
CAPE HATTERAS  FAIR      59  51  75 E8        30.36R
TARBORO*       NOT AVBL
GOLDSBORO      MOCLDY    53  50  88 E9        30.31R
WASHINGTON     FAIR      51  49  92 E7        30.35R
GREENVILLE     FAIR      50  48  93 CALM      30.35R
NEW BERN       FAIR      56  55  97 E6        30.34R
WILMINGTON     FAIR      63  51  65 E7        30.27S
$$

VAZ048-231200-
ELSEWHERE

CITY           SKY/WX    TMP DP  RH WIND       PRES   REMARKS
HARRISBURG PA  FAIR      42  33  70 CALM      30.42R
BALTIMORE      MOCLDY    48  41  76 CALM      30.42R
ANNAPOLIS      FAIR      51  47  86 CALM      30.42R
ANDREWS AFB    CLOUDY    44  38  81 S3        30.41R
PHILADELPHIA   FAIR      44  38  79 CALM      30.45R
HENDERSON NC   FAIR      48  43  85 SE3       30.34R
GREENSBORO     CLOUDY    53  40  61 E9        30.28S
ROCKY MOUNT    FAIR      50  47  89 CALM      30.35R
$$

VAZ100-231200-
MARINE

STATION/POSITION TIME  TEMP    WIND        PRES    WAVE   SWELL
                       AIR SEA DIR/SP/G            HT/PER HT/PER
                 (UTC) (F)     (DEG/KT/KT) (MB)    (FT/S) (FT/S)
BRANDYWINE LGT   1042   50      80/  4/  4 1031.2R
CAPE MAY NJ      1048   41 49   80/  2/  3 1030.5R
LEWES DE         1042   47 50   90/  3/  4 1030.7R
15NM E FENWICK I 1050   46 46   70/  6/  8 1031.5R   1/15   2/15
OCEAN-CITY-INLET 1042   48 50  110/  3/  4 1031.2R
WACHAPREAGUE VA  1042   52 55   90/  4/  5 1030.2R
GOOSES REEF MD   1100   52     180/  2/  4 1031.1
COVE POINT MD    1042   52     170/  4/  5 1030.8R
SOLOMONS ISLAND  1042   52 53  120/  5/  5 1029.8R
BISHOPS HEAD MD  1042   53 55  150/  8/ 10 1030.3R
PINEY POINT MD   1042          120/  5/  6   N/A
POTOMAC MD       1100   53 53  130/  6/  8 1031.1    1
CAMBRIDGE MD     1042   51 55              1031.2R
LEWISETTA VA     1042   52 56  100/  3/  3 1029.9R
RAPPAHANNOCK LGT 1042           90/ 12/ 13 1030.3R
STINGRAY PT      1100   53 54  130/ 12/ 14 1030.3    1/ 2
YORK RVR RNG VA  1042   54     100/ 10/ 13 1029.8R
YORKTOWN VA      1042   54 56  100/  5/  6 1028.7R
DOMINION TERM VA 1042   55      90/  2/ 10 1029.0R
KIPTOPEKE VA     1042      54  100/ 10/ 14   N/A
CAPE HENRY VA    1042   54     130/ 11/ 13   N/A
WILLOUBY STN VA  1042   55     120/  9/ 10 1028.8R
S CRANEY ISL VA  1042   54     140/  6/  8 1028.5R
CAPE HENRY BUOY  1100      51                N/A     2/15
1ST LANDING BUOY 1100   54 53  120/ 10/ 12 1029.3    1
64NM E OF VA BCH 1050   53 49   80/ 10/ 12 1030.1R   2/15   2/15
DUCK PIER NC     1042   54 53   90/ 14/ 15 1028.3R
44100 DUCK FRF   1015      51                N/A     2/ 4
44056 DUCK FRF   1100      53                N/A     2/ 4
OREGON INLET NC  1042   54 56   60/  8/ 11 1028.3R
HATTERAS NC      1042   61 62   90/  7/ 10 1027.4R
DIAMOND SHLS NC  1100   66 71  100/ 16/ 19 1028.1
$$




USA.gov is the U.S. government's official web portal to all federal, state and local government web resources and services.